www.pogodaiklimat.ru

Погода и климат >> Архив погоды >> Южная Африка >> Кейптаун аэропорт


АРХИВ ПОГОДЫ в Кейптауне аэропорту

Время (UTC), дата Ветер
(напр.,м/с)
 
Видим.   Явления Облачность Т
(С)
Тd
(С)
f
(%)
Тe
(С)
Тes
(С)
Комфортность P
(гПа)
Po
(гПа)
Тmin
(С)
Tmax
(С)
R
(мм)
R24
(мм)
S
(см)
15 13.07 Ю 4 20 км ясно +16.6 +10.0 65 +16 +16 тепло 1019.9 1014.4 +19.6
18 13.07 ЮЗ 2 5000 м дымка ясно +13.4 +12.8 96 +13 +13 тепло 1019.5 1013.9 +13.4 +19.6
21 13.07 СВ 1 200 м туман ясно +11.3 +11.0 98 +11 +11 по сезону 1019.1 1013.5 +8.1 +19.6
00 14.07 С 2 7000 м дымка {туман} 5/5 100 м
[St]
+8.0 +7.8 99 +6 +6 по сезону 1019.5 1013.8 +7.5 +19.6
03 14.07 В 2 20 км 1/1 200 м
[St]
+7.7 +7.4 98 +5 +5 по сезону 1019.5 1013.8 +7.7 +19.6
06 14.07 СВ 2 100 м туман 5/5 <50 м
[St As trans]
+9.7 +9.5 99 +8 +8 по сезону 1020.4 1014.8 +7.2
09 14.07 В 3 15 км 5/5 300 м
[Sc]
+13.9 +11.4 85 +13 +15 по сезону 1021.4 1015.8
12 14.07 СЗ 4 20 км 5/5 600 м
[Sc]
+16.1 +9.6 65 +15 +17 по сезону 1020.0 1014.5 +9.6
15 14.07 СЗ 5 50 км 5/0
[]
+15.0 +9.3 69 +14 +14 по сезону 1019.5 1014.0
18 14.07 С 4 29 км ясно +12.1 +9.0 81 +10 +10 по сезону 1021.0 1015.4 +7.2 +17.5
21 14.07 С 3 20 км ясно +11.0 +8.5 85 +9 +9 по сезону 1021.6 1015.9 +7.2 +17.5
00 15.07 С 3 20 км 5/5 600 м
[Sc]
+11.0 +8.5 85 +9 +9 по сезону 1021.6 1015.9 +7.2 +17.5
03 15.07 СВ 4 10 км 1/1 600 м
[Sc]
+10.0 +8.6 91 +7 +7 по сезону 1021.6 1016.0
06 15.07 СВ 3 20 км ясно +8.9 +7.9 93 +6 +6 по сезону 1022.5 1016.8 +7.6
09 15.07 СЗ 2 20 км 1/1 600 м
[Sc]
+14.9 +10.0 72 +15 +19 тепло 1023.6 1018.0
12 15.07 Ю 2 30 км ясно +19.8 +11.1 57 +22 +28 комфорт 1020.4 1015.0 +7.9 +19.0
15 15.07 Ю 4 30 км ясно +17.0 +11.0 68 +17 +17 тепло 1020.4 1014.9 +16.8 +20.0
18 15.07 Ю 2 20 км 1/0
[]
+10.3 +8.9 91 +9 +9 по сезону 1020.7 1015.1 +10.3 +20.0
21 15.07 ЮЗ 4 9000 м дымка ясно +13.0 +12.3 96 +11 +11 по сезону 1020.2 1014.6
00 16.07 штиль 0 500 м туман ясно +8.2 +7.9 98 +7 +7 по сезону 1019.1 1013.4 +19.9
03 16.07 СВ 2 200 м туман ясно +7.6 +7.4 99 +5 +5 по сезону 1017.6 1011.9
06 16.07 С 5 5000 м туман на расстоянии 1/0
[Ci fib]
+10.4 +10.2 99 +7 +7 по сезону 1018.4 1012.7 +5.8
09 16.07 С 4 7000 м дымка 9/5 300 м
[St Ci sp]
+14.2 +12.5 90 +13 +15 по сезону 1020.3 1014.7 +8.4 +14.3
12 16.07 С 4 20 км 1/1 600 м
[Sc]
+16.8 +12.1 74 +16 +20 по сезону 1018.9 1013.4 +5.8 +16.9
15 16.07 СЗ 5 20 км 3/3 600 м
[Sc Ac und]
+16.0 +11.6 75 +15 +15 тепло 1018.6 1013.1 +5.8 +17.1
18 16.07 С 3 20 км ясно +12.7 +10.7 88 +11 +11 по сезону 1018.9 1013.3 +5.8 +17.0
21 16.07 С 5 9000 м дымка 4/4 100 м
[St]
+12.7 +11.9 95 +10 +10 по сезону 1019.5 1013.6 +17.0
00 17.07 СВ 6 10 км дымка 3/3 300 м
[Sc]
+10.8 +9.8 94 +8 +8 по сезону 1019.4 1013.6 +17.0
03 17.07 С 8 20 км 6/6 600 м
[Sc]
+12.9 +10.1 83 +10 +10 тепло 1019.1 1013.5 +17.0
06 17.07 С 8 20 км 9/9 600 м
[Sc]
+12.4 +10.0 85 +9 +9 по сезону 1019.8 1014.2 +10.2
09 17.07 С 10 20 км 6/6 600 м
[Sc]
+15.9 +9.6 66 +14 +14 тепло 1021.0 1015.4
12 17.07 С 8 20 км слаб. морось 9/9 600 м
[Sc]
+15.5 +10.4 72 +14 +14 по сезону 1019.6 1014.0 +10.2 +16.1
15 17.07 С 8 20 км 9/9 600 м
[Sc]
+15.5 +10.4 72 +14 +14 по сезону 1019.6 1014.0 +10.2 +16.1
18 17.07 С 8 20 км 8/8 600 м
[Sc]
+15.5 +10.4 72 +14 +14 тепло 1019.6 1014.0 +10.2 +16.0
21 17.07 С 7 30 км 9/9
[Sc]
+14.3 +10.5 78 +12 +12 тепло 1020.0 1014.5 +14.2 +16.0
00 18.07 С 7 10 км слаб. морось 9/9 300 м
[Sc]
+13.6 +11.3 86 +11 +11 тепло 1019.3 1013.8 +13.6 +16.0
03 18.07 10 км слаб. морось н/о +13.4 +12.0 91 +11 +11 тепло 1018.3 1012.8 +13.3 +16.0
06 18.07 С 9 20 км 9/9 300 м
[Sc]
+13.7 +11.9 89 +11 +11 тепло 1018.2 1012.7 +13.2 0.1
09 18.07 С 7 30 км в посл. час морось 10/10 600 м
[Sc]
+15.1 +13.7 91 +13 +13 по сезону 1019.4 1013.8
12 18.07 С 10 10 км в посл. час морось 9/9
[Sc]
+16.5 +15.0 91 +15 +15 по сезону 1018.4 1012.9 +13.7 1
18 18.07 С 11 20 км 8/8 300 м
[Sc]
+16.3 +14.3 88 +14 +14 тепло 1017.1 1011.6 +17.6 1
21 18.07 С 11 20 км 8/8 200 м
[Sc]
+16.3 +14.3 88 +14 +14 тепло 1017.1 1011.6 +13.2 +17.6
00 19.07 З 3 20 км 8/8 600 м
[Sc]
+15.1 +10.3 73 +14 +14 тепло 1018.4 1012.9 +13.2 +17.6 0.1
03 19.07 ЮЗ 6 20 км 8/8 600 м
[Sc]
+13.3 +8.6 73 +11 +11 тепло 1019.3 1013.7
06 19.07 З 6 15 км 8/8 600 м
[Sc]
+12.6 +8.5 76 +10 +10 тепло 1021.0 1015.4 +12.0 6
09 19.07 З 6 50 км 9/9 600 м
[Sc]
+13.8 +7.4 65 +12 +12 по сезону 1023.2 1017.7
12 19.07 ЮЗ 6 20 км 5/5 1000 м
[Sc]
+13.8 +6.9 63 +12 +13 прохладно 1023.2 1017.7 +12.6 0.5
15 19.07 ЮЗ 6 20 км 5/5 1000 м
[Sc]
+12.4 +5.8 64 +10 +10 прохладно 1024.9 1019.2 +14.3
18 19.07 ЮЗ 7 20 км 3/3 1000 м
[Sc]
+11.1 +4.2 62 +8 +8 по сезону 1026.6 1020.8 +14.3 0.7
21 19.07 ЮЗ 4 15 км в посл. час ливневой дождь 5/5 1000 м
[Sc]
+8.9 +6.5 85 +6 +6 прохладно 1028.0 1022.3
00 20.07 Ю 5 15 км 5/5 1000 м
[Sc]
+8.7 +3.8 71 +6 +6 по сезону 1028.7 1022.9 +7.3 +11.1 1
03 20.07 Ю 3 15 км слаб. дождь 6/6 600 м
[Sc]
+7.8 +6.4 91 +5 +5 по сезону 1028.7 1022.9
06 20.07 ЮВ 2 25 км {дождь} 4/4 1500 м
[Sc]
+5.7 +4.1 89 +4 +4 по сезону 1029.9 1024.1 +5.5 2
09 20.07 ЮВ 6 30 км 1/1 1000 м
[Sc]
+11.8 +4.7 62 +9 +11 по сезону 1031.5 1025.9
12 20.07 Ю 6 30 км 3/3 600 м
[Sc]
+13.3 +3.6 52 +11 +13 прохладно 1029.5 1023.9 +5.6 +13.7

 

Местоположение метеостанции Кейптаун аэропорт (Южная Африка): широта -33.96 долгота 18.60 высота над уровнем моря 42 м.

В архиве по умолчанию представлена погода в Кейптауне аэропорту за последнюю неделю. Архивные данные за месяц целиком и за предыдущие месяцы, начиная с января 2011 года, Вы можете получить, выбрав интересующий диапазон дат из раскрывающегося списка и нажав кнопку "Ввод!".


*Определитесь, кто Вы:
робот инопланетянин человек

Внимание! Время в таблицах - всемирное. Для получения местного времени необходимо прибавить поправку, которая равна 2 ч.

Смотрите также архив погоды в соседних городах и на ближайших метеорологических станциях:

Погода в Йестерпланте (Южная Африка) (11 км)
Погода в Кейптаун порту (Южная Африка) (17 км)
Погода в Кейптауне (Южная Африка) (18 км)
Погода на Роббенэйланде (Южная Африка) (28 км)
Погода в Странде (Южная Африка) (31 км)
Погода на Слангкопе (Южная Африка) (33 км)
Погода в Парле (Южная Африка) (43 км)
Погода на Кейп-Пойнт (Южная Африка) (44 км)
Погода в Малмсбери (Южная Африка) (57 км)
Погода в Херманусе (Южная Африка) (77 км)

Пояснения к столбцам:

Ветер - указаны скорость ветра в м/с - средняя за 10 мин, порывы в срок и между сроками (в фигурных скобках) и направление, откуда дует ветер: С - северный, СВ - северо-восточный, В - восточный, ЮВ - юго-восточный, Ю - южный, ЮЗ - юго-западный, З - западный, СЗ - северо-западный.
Видимость - горизонтальная дальность видимости в метрах или километрах. При видимости от 1 до 10 км при отсутствии осадков обычно наблюдается дымка, при ухудшении видимости до 1 км и менее - туман. В сухую погоду видимость может ухудшаться дымом, пылью или мглою.
Явления - указаны атмосферные явления, наблюдавшиеся в срок или в последний час перед сроком; фигурными скобками обозначены явления, наблюдавшиеся между сроками (за 1-3 часа до срока); квадратными скобками обозначены град или гололедные отложения с указанием их диаметра в мм.
Облачность - указаны через наклонную черту общая и нижняя облачность в баллах и высота нижней границы облаков в метрах; квадратными скобками обозначены формы облаков: Ci - перистые, Cs - перисто-слоистые, Cc - перисто-кучевые, Ac - высококучевые, As - высокослоистые, Sc - слоисто-кучевые, Ns - слоисто-дождевые, Cu - кучевые, Cb - кучево-дождевые. Подробнее классификацию облаков см. в Атласе облаков (PDF).
T - Температура воздуха - температура, измеренная на высоте 2 м над землей.
Td - Температура точки росы - температура, при понижении до которой содержащийся в воздухе водяной пар достигнет насыщения.
f - Относительная влажность воздуха - влажноcть воздуха, измеренная на высоте 2 м над землей.
Te - Эффективная температура - температура, которую ощущает одетый по сезону человек в тени. Характеристика душности погоды. При расчете учитывается влияние влажности воздуха и скорости ветра на теплоощущения человека.
Tes - Эффективная температура на солнце - температура, которую ощущает человек, с поправкой на солнечный нагрев. Характеристика знойности погоды. Зависит от высоты солнца над горизонтом, облачности и скорости ветра. Ночью, в пасмурную погоду, а также при ветре 12 м/с и более поправка равна нулю.
P - Атмосферное давление - приведенное к уровню моря атмосферное давление.
Po - Атмосферное давление - измеренное на уровне метеостанции атмосферное давление.
Tmin - Минимальная температура - минимум температуры воздуха на высоте 2 м над землей.
Tmax - Максимальная температура - максимум температуры воздуха на высоте 2 м над землей.
R - Количество осадков - Количество выпавших осадков за период времени, мм. При наведении курсора мыши на число - период времени, за который выпало указанное количество осадков.
R24 - Количество осадков - Количество выпавших осадков за 24 часа, мм.
S - Снежный покров - Высота снежного покрова, см. При наведении курсора мыши на число - состояние снежного покрова и степень покрытия местности в баллах.